This demonstration page uses our WeatherBlox Daily Observations layout. Learn more.

Hourly Observations for December 12, 2018

Temp ( °F °C ) Dew Point ( °F °C ) Humidity (%) Winds ( mph kmh ) Pressure ( in mb ) Visibility ( mi km ) Precip ( " mm )
12:15 am 00:15 Mostly Cloudy 32 0 23 -5 69 69 S 3 6 30.09 1019 10 16.09344 0 0
12:35 am 00:35 Cloudy 32 0 23 -5 69 69 Calm 30.09 1019 10 16.09344 0 0
12:55 am 00:55 Partly Cloudy 32 0 23 -5 69 69 WSW 5 7 30.09 1019 10 16.09344 0 0
1:15 am 01:15 Clear 34 1 23 -5 65 65 SE 3 6 30.09 1019 10 16.09344 0 0
1:35 am 01:35 Clear 32 0 23 -5 69 69 Calm 30.09 1019 10 16.09344 0 0
1:55 am 01:55 Clear 32 0 23 -5 69 69 WSW 6 9 30.09 1019 10 16.09344 0 0
2:15 am 02:15 Clear 32 0 23 -5 69 69 Calm 30.12 1020 10 16.09344 0 0
2:35 am 02:35 Clear 32 0 23 -5 69 69 SSE 3 6 30.12 1020 10 16.09344 0 0
2:55 am 02:55 Clear 32 0 23 -5 69 69 SE 5 7 30.12 1020 10 16.09344 0 0
3:15 am 03:15 Partly Cloudy 32 0 23 -5 69 69 Calm 30.12 1020 10 16.09344 0 0
3:35 am 03:35 Partly Cloudy 32 0 23 -5 69 69 Calm 30.12 1020 10 16.09344 0 0
3:55 am 03:55 Mostly Cloudy 30 -1 23 -5 75 75 Calm 30.15 1021 10 16.09344 0 0
4:15 am 04:15 Cloudy 30 -1 23 -5 75 75 Calm 30.15 1021 10 16.09344 0 0
4:35 am 04:35 Cloudy 30 -1 25 -4 80 80 Calm 30.15 1021 10 16.09344 0 0
4:55 am 04:55 Mostly Cloudy 28 -2 23 -5 80 80 NW 5 7 30.15 1021 10 16.09344 0 0
5:15 am 05:15 Clear 28 -2 25 -4 86 86 Calm 30.15 1021 10 16.09344 0 0
5:35 am 05:35 Clear 30 -1 25 -4 80 80 S 3 6 30.18 1022 10 16.09344 0 0
5:55 am 05:55 Mostly Cloudy 32 0 27 -3 80 80 Calm 30.18 1022 10 16.09344 0 0
6:15 am 06:15 Mostly Cloudy 28 -2 25 -4 86 86 Calm 30.18 1022 10 16.09344 0 0
6:35 am 06:35 Partly Cloudy 27 -3 23 -5 86 86 Calm 30.18 1022 10 16.09344 0 0
6:55 am 06:55 Clear 28 -2 25 -4 86 86 WNW 3 6 30.21 1023 10 16.09344 0 0
7:15 am 07:15 Clear 28 -2 23 -5 80 80 W 3 6 30.21 1023 10 16.09344 0 0
7:35 am 07:35 Sunny 28 -2 25 -4 86 86 Calm 30.21 1023 10 16.09344 0 0
7:55 am 07:55 Sunny 28 -2 25 -4 86 86 Calm 30.21 1023 10 16.09344 0 0
8:15 am 08:15 Sunny 30 -1 27 -3 86 86 WSW 3 6 30.24 1024 10 16.09344 0 0
8:35 am 08:35 Sunny 32 0 27 -3 80 80 W 3 6 30.24 1024 10 16.09344 0 0
8:55 am 08:55 Partly Cloudy 32 0 28 -2 87 87 Calm 30.24 1024 10 16.09344 0 0
9:15 am 09:15 Partly Cloudy 34 1 28 -2 81 81 Calm 30.24 1024 10 16.09344 0 0
9:35 am 09:35 Sunny 36 2 30 -1 81 81 Calm 30.27 1025 10 16.09344 0 0
9:55 am 09:55 Sunny 37 3 30 -1 75 75 Calm 30.24 1024 10 16.09344 0 0
10:15 am 10:15 Sunny 41 5 30 -1 66 66 Calm 30.24 1024 10 16.09344 0 0
10:35 am 10:35 Sunny 41 5 28 -2 61 61 Calm 30.27 1025 10 16.09344 0 0
10:55 am 10:55 Sunny 41 5 28 -2 61 61 Calm 30.24 1024 10 16.09344 0 0
11:15 am 11:15 Sunny 43 6 28 -2 57 57 Calm 30.24 1024 10 16.09344 0 0
11:35 am 11:35 Sunny 43 6 28 -2 57 57 Calm 30.24 1024 10 16.09344 0 0
11:55 am 11:55 Sunny 43 6 28 -2 57 57 Calm 30.21 1023 10 16.09344 0 0
12:15 pm 12:15 Sunny 45 7 28 -2 53 53 Calm 30.21 1023 10 16.09344 0 0
12:35 pm 12:35 Sunny 45 7 28 -2 53 53 SSE 5 7 30.18 1022 10 16.09344 0 0
12:55 pm 12:55 Sunny 45 7 28 -2 53 53 SW 5 7 30.18 1022 10 16.09344 0 0
1:15 pm 13:15 Sunny 45 7 28 -2 53 53 WNW 3 6 30.18 1022 10 16.09344 0 0
1:35 pm 13:35 Sunny 45 7 28 -2 53 53 Calm 30.18 1022 10 16.09344 0 0
1:55 pm 13:55 Sunny 45 7 28 -2 53 53 Calm 30.15 1021 10 16.09344 0 0
2:15 pm 14:15 Sunny 45 7 28 -2 53 53 S 7 11 30.15 1021 10 16.09344 0 0
2:35 pm 14:35 Sunny 45 7 28 -2 53 53 SSW 7 11 30.15 1021 10 16.09344 0 0
2:55 pm 14:55 Sunny 45 7 28 -2 53 53 S 6 9 30.18 1022 10 16.09344 0 0
3:15 pm 15:15 Sunny 45 7 28 -2 53 53 SSW 5 7 30.18 1022 10 16.09344 0 0
3:35 pm 15:35 Sunny 45 7 28 -2 53 53 SSW 5 7 30.18 1022 10 16.09344 0 0
3:55 pm 15:55 Sunny 45 7 28 -2 53 53 SSE 6 9 30.18 1022 10 16.09344 0 0
4:15 pm 16:15 Sunny 45 7 28 -2 53 53 SSE 6 9 30.18 1022 10 16.09344 0 0
4:35 pm 16:35 Partly Cloudy 43 6 28 -2 57 57 S 6 9 30.18 1022 10 16.09344 0 0
4:55 pm 16:55 Mostly Cloudy 43 6 28 -2 57 57 S 3 6 30.18 1022 10 16.09344 0 0
5:15 pm 17:15 Cloudy 43 6 28 -2 57 57 SSE 6 9 30.18 1022 10 16.09344 0 0
5:35 pm 17:35 Cloudy 43 6 28 -2 57 57 SSE 8 13 30.21 1023 10 16.09344 0 0
5:55 pm 17:55 Cloudy 43 6 28 -2 57 57 SSE 10 17 30.21 1023 10 16.09344 0 0
6:15 pm 18:15 Cloudy 43 6 28 -2 57 57 S 13 20 30.18 1022 10 16.09344 0 0
6:35 pm 18:35 Cloudy 43 6 28 -2 57 57 SSE 6 9 30.18 1022 10 16.09344 0 0
6:55 pm 18:55 Partly Cloudy 43 6 28 -2 57 57 S 10 17 30.18 1022 10 16.09344 0 0
7:15 pm 19:15 Clear 41 5 28 -2 61 61 SSE 8 13 30.18 1022 10 16.09344 0 0
7:35 pm 19:35 Clear 41 5 28 -2 61 61 S 10 17 30.21 1023 10 16.09344 0 0
7:55 pm 19:55 Clear 41 5 28 -2 61 61 SSE 9 15 30.18 1022 10 16.09344 0 0
8:15 pm 20:15 Clear 41 5 28 -2 61 61 SSE 5 7 30.18 1022 10 16.09344 0 0
8:35 pm 20:35 Clear 41 5 28 -2 61 61 S 12 19 30.18 1022 10 16.09344 0 0
8:55 pm 20:55 Clear 39 4 28 -2 65 65 SSE 10 17 30.18 1022 10 16.09344 0 0
9:15 pm 21:15 Clear 39 4 28 -2 65 65 S 8 13 30.18 1022 10 16.09344 0 0
9:35 pm 21:35 Clear 37 3 28 -2 70 70 S 7 11 30.21 1023 10 16.09344 0 0
9:55 pm 21:55 Clear 37 3 28 -2 70 70 SSE 7 11 30.21 1023 10 16.09344 0 0
10:15 pm 22:15 Clear 37 3 28 -2 70 70 S 7 11 30.18 1022 10 16.09344 0 0
10:35 pm 22:35 Partly Cloudy 37 3 28 -2 70 70 ESE 3 6 30.21 1023 10 16.09344 0 0
10:55 pm 22:55 Cloudy 37 3 28 -2 70 70 SSE 5 7 30.18 1022 10 16.09344 0 0
11:15 pm 23:15 Cloudy 37 3 30 -1 75 75 S 5 7 30.21 1023 10 16.09344 0 0
11:35 pm 23:35 Cloudy 39 4 30 -1 70 70 S 7 11 30.21 1023 10 16.09344 0 0
11:55 pm 23:55 Cloudy 37 3 28 -2 70 70 S 6 9 30.18 1022 10 16.09344 0 0

Powered by AerisWeather